Hutchinson, KS

4:26 AM CDT on September 17, 2019 (GMT -0500)
Hutchinson Municipal

Weather History for KHUT - July, 2019

Change the Weather History Date:

Tuesday, July 16, 2019

  Actual Average Record
Temperature  
Mean Temperature 82 °F -  
Max Temperature 97 °F 91 °F 107 °F (2011)
Min Temperature 69 °F 66 °F 57 °F (2014)
Cooling Degree Days 18    
Growing Degree Days 32 (Base 50)    
Moisture  
Dew Point 69 °F    
Average Humidity 69    
Maximum Humidity 90    
Minimum Humidity 40    
Precipitation  
Precipitation 0.00 in - - ()
Sea Level Pressure  
Sea Level Pressure 29.85 in    
Wind  
Wind Speed 7 mph (SSE)    
Max Wind Speed 17 mph    
Max Gust Speed 24 mph    
Visibility 10 miles    
Events Thunderstorm    
Averages and records for this station are not official NWS values.
T = Trace of Precipitation, MM = Missing Value Source: NWS Daily Summary

Daily Weather History Graph

Daily Weather History Graph

Search for Another Location

Airport or City:

Astronomy

Jul. 16, 2019 Rise Set
Actual Time 6:21 AM CDT 8:53 PM CDT
Civil Twilight 5:50 AM CDT 9:23 PM CDT
Nautical Twilight 5:12 AM CDT 10:01 PM CDT
Astronomical Twilight 4:30 AM CDT 10:43 PM CDT
Moon 9:00 PM CDT (7/16) 6:01 AM CDT (7/16)
Length of Visible Light 15h 33m
Length of Day
14h 31m
Full, 100% of the Moon is Illuminated
Jul 16
Full
Jul 16
Full
Jul 24
Last Quarter
Jul 31
New
Aug 7
First Quarter

Hourly Weather History & Observations

Time (CDT) Temp. Heat Index Dew Point Humidity Pressure Visibility Wind Dir Wind Speed Gust Speed Precip Events Conditions
12:52 AM 71.1 °F - 66.9 °F 87% 29.87 in 10.0 mi ESE 4.6 mph - N/A   Clear
1:52 AM 72.0 °F - 68.0 °F 87% 29.86 in 10.0 mi SE 6.9 mph - N/A   Clear
2:52 AM 71.1 °F - 66.9 °F 87% 29.86 in 10.0 mi SSE 4.6 mph - N/A   Clear
3:52 AM 70.0 °F - 66.0 °F 87% 29.85 in 10.0 mi South 4.6 mph - N/A   Clear
4:52 AM 69.1 °F - 66.0 °F 90% 29.84 in 10.0 mi SSE 4.6 mph - N/A   Clear
5:52 AM 70.0 °F - 66.0 °F 87% 29.86 in 10.0 mi SW 4.6 mph - N/A   Clear
6:52 AM 71.1 °F - 66.9 °F 87% 29.88 in 10.0 mi Calm Calm - N/A   Clear
7:52 AM 75.0 °F - 68.0 °F 79% 29.88 in 10.0 mi South 4.6 mph - N/A   Clear
8:52 AM 79.0 °F - 68.0 °F 69% 29.88 in 10.0 mi South 11.5 mph - N/A   Clear
9:52 AM 84.0 °F 87.8 °F 69.1 °F 61% 29.86 in 10.0 mi SSE 10.4 mph - N/A   Clear
10:52 AM 87.1 °F 92.0 °F 70.0 °F 57% 29.86 in 10.0 mi SSE 11.5 mph - N/A   Clear
11:52 AM 91.0 °F 97.6 °F 71.1 °F 52% 29.87 in 10.0 mi SE 6.9 mph - N/A   Clear
12:52 PM 93.9 °F 100.8 °F 71.1 °F 47% 29.86 in 10.0 mi SSE 10.4 mph 21.9 mph N/A   Clear
1:52 PM 96.1 °F 101.0 °F 68.0 °F 40% 29.84 in 10.0 mi SSW 8.1 mph 20.7 mph N/A   Partly Cloudy
2:45 PM 84.9 °F 89.4 °F 70.0 °F 61% 29.91 in 10.0 mi South 17.3 mph 24.2 mph N/A Thunderstorm Scattered Clouds
2:52 PM 82.0 °F 85.5 °F 69.1 °F 65% 29.84 in 10.0 mi SSE 12.7 mph 24.2 mph N/A Thunderstorm Scattered Clouds
3:00 PM 82.9 °F 86.5 °F 69.1 °F 63% 29.91 in 10.0 mi SSE 8.1 mph - N/A   Scattered Clouds
3:52 PM 81.0 °F 83.8 °F 68.0 °F 65% 29.85 in 10.0 mi SE 11.5 mph - N/A   Clear
4:52 PM 86.0 °F 91.5 °F 71.1 °F 61% 29.84 in 10.0 mi SSE 16.1 mph - N/A   Clear
5:52 PM 89.1 °F 96.0 °F 72.0 °F 57% 29.81 in 10.0 mi SSE 11.5 mph - N/A   Clear
6:52 PM 88.0 °F 92.9 °F 70.0 °F 55% 29.80 in 10.0 mi SSE 11.5 mph - N/A   Clear
7:52 PM 86.0 °F 90.7 °F 70.0 °F 59% 29.80 in 10.0 mi SE 10.4 mph - N/A   Clear
8:52 PM 82.0 °F 86.3 °F 71.1 °F 69% 29.80 in 10.0 mi SSE 8.1 mph - N/A   Clear
9:52 PM 79.0 °F - 68.0 °F 69% 29.81 in 10.0 mi SE 4.6 mph - N/A   Clear
10:52 PM 78.1 °F - 66.9 °F 68% 29.82 in 10.0 mi SE 6.9 mph - N/A   Clear
11:52 PM 77.0 °F - 68.0 °F 74% 29.83 in 10.0 mi SE 5.8 mph - N/A   Clear